Powrót do katalogu

FENGYUN 1C DEB

AktywnySSO
NORAD 29992·DEBRIS·🇨🇳 China

Wystrzelony May 10, 1999 z Taiyuan Satellite Launch Center

Loading…

Następne Przeloty (najbliższe 24 godziny)

TLE

ŚwieżeSource: Space-Track

Epoka: Sep 14, 2026, 05:00 UTC

1 29992U 99025LS  26257.20891411  .00000103  00000-0  76628-4 0  9991
2 29992  98.7469 250.2320 0089697 105.8342 314.5876 14.11705052 12746

Śledź FENGYUN 1C DEB w czasie rzeczywistym z AllMySat

Download on the App Store